BEIDOU-2 G6

Last updated on Wed Sep 09 2026 00:02:59 GMT+0000 (Coordinated Universal Time)

1 38953U 12059A 26251.46171990 -.00000195 00000+0 00000+0 0 9992 2 38953 4.6263 72.5692 0006780 324.2316 200.9881 1.00270712 50748
UTC large
Height (km)
Speed (km/s)
/
Latitude / Longitude
Inclination (degrees)
Orbital Period (minutes)
Azimuth
Elevation
Range (km)
Doppler Factor

Next 0 passes for location: London (51.5072 / 0.1276)

No passes found over London.
BEIDOU-2 G6